TimeHST,TemperatureF,Dew PointF,Humidity,Sea Level PressureIn,VisibilityMPH,Wind Direction,Wind SpeedMPH,Gust SpeedMPH,PrecipitationIn,Events,Conditions,WindDirDegrees,DateUTC
12:53 AM,79.0,70.0,74,30.03,10.0,ENE,16.1,-,N/A,,Overcast,60,2013-09-18 10:53:00
1:53 AM,77.0,71.1,82,30.01,10.0,NE,13.8,-,N/A,,Scattered Clouds,50,2013-09-18 11:53:00
2:38 AM,78.8,71.6,78,30.00,10.0,NE,12.7,-,N/A,,Mostly Cloudy,40,2013-09-18 12:38:00
2:53 AM,78.1,72.0,81,29.99,10.0,ENE,13.8,-,N/A,,Mostly Cloudy,60,2013-09-18 12:53:00
3:04 AM,78.8,69.8,74,29.99,10.0,ENE,13.8,-,N/A,,Scattered Clouds,60,2013-09-18 13:04:00
3:38 AM,78.8,71.6,78,29.99,10.0,NE,12.7,-,N/A,,Mostly Cloudy,50,2013-09-18 13:38:00
3:53 AM,78.1,71.1,79,29.98,10.0,NE,13.8,-,N/A,,Mostly Cloudy,50,2013-09-18 13:53:00
4:06 AM,78.8,69.8,74,29.99,10.0,NE,13.8,-,N/A,,Scattered Clouds,50,2013-09-18 14:06:00
4:18 AM,78.8,71.6,78,29.99,10.0,ENE,13.8,-,N/A,,Mostly Cloudy,60,2013-09-18 14:18:00
4:25 AM,78.8,71.6,78,29.98,10.0,ENE,11.5,-,N/A,,Scattered Clouds,60,2013-09-18 14:25:00
4:53 AM,78.1,71.1,79,29.98,10.0,NE,13.8,-,N/A,,Scattered Clouds,50,2013-09-18 14:53:00
5:53 AM,77.0,70.0,79,29.99,10.0,ENE,13.8,-,0.00,,Scattered Clouds,60,2013-09-18 15:53:00
6:53 AM,77.0,72.0,84,29.99,10.0,ENE,13.8,-,0.11,,Mostly Cloudy,70,2013-09-18 16:53:00
7:53 AM,78.1,72.0,81,30.01,10.0,ENE,12.7,-,N/A,,Mostly Cloudy,60,2013-09-18 17:53:00
8:14 AM,80.6,71.6,74,30.03,10.0,NE,11.5,-,N/A,,Overcast,50,2013-09-18 18:14:00
8:53 AM,80.1,71.1,74,30.04,10.0,ENE,11.5,-,N/A,,Overcast,70,2013-09-18 18:53:00
9:00 AM,80.6,71.6,74,30.04,10.0,ENE,12.7,-,N/A,,Overcast,60,2013-09-18 19:00:00
9:32 AM,80.6,71.6,74,30.04,10.0,ENE,11.5,-,N/A,,Overcast,60,2013-09-18 19:32:00
9:53 AM,82.0,71.1,69,30.05,10.0,ENE,12.7,-,N/A,,Overcast,70,2013-09-18 19:53:00
10:53 AM,82.9,72.0,69,30.04,10.0,ENE,16.1,-,N/A,,Mostly Cloudy,70,2013-09-18 20:53:00
11:53 AM,82.9,71.1,67,30.03,10.0,ENE,12.7,-,N/A,,Overcast,60,2013-09-18 21:53:00
12:21 PM,84.2,71.6,66,30.03,10.0,ENE,12.7,-,N/A,,Overcast,60,2013-09-18 22:21:00
12:31 PM,84.2,69.8,62,30.03,10.0,ENE,12.7,-,N/A,,Overcast,60,2013-09-18 22:31:00
12:53 PM,84.0,71.1,65,30.01,10.0,ENE,13.8,-,N/A,,Overcast,60,2013-09-18 22:53:00
1:19 PM,84.2,71.6,66,30.01,10.0,NE,13.8,-,N/A,,Mostly Cloudy,50,2013-09-18 23:19:00
1:44 PM,84.2,71.6,66,30.01,10.0,ENE,12.7,-,N/A,,Scattered Clouds,60,2013-09-18 23:44:00
1:53 PM,84.9,71.1,63,30.00,10.0,NE,15.0,-,N/A,,Scattered Clouds,40,2013-09-18 23:53:00
2:53 PM,84.9,71.1,63,29.98,10.0,NE,12.7,-,N/A,,Partly Cloudy,50,2013-09-19 00:53:00
3:53 PM,82.9,71.1,67,29.98,10.0,NE,13.8,-,N/A,,Scattered Clouds,50,2013-09-19 01:53:00
4:53 PM,82.9,71.1,67,29.97,10.0,NE,15.0,-,N/A,,Partly Cloudy,40,2013-09-19 02:53:00
5:53 PM,81.0,72.0,74,29.98,10.0,NNE,15.0,-,N/A,,Mostly Cloudy,30,2013-09-19 03:53:00
6:03 PM,80.6,71.6,74,29.99,10.0,NE,15.0,-,N/A,,Mostly Cloudy,40,2013-09-19 04:03:00
6:26 PM,78.8,71.6,78,29.99,10.0,NE,13.8,-,N/A,,Scattered Clouds,40,2013-09-19 04:26:00
6:50 PM,78.8,71.6,78,29.99,10.0,NE,13.8,-,N/A,,Mostly Cloudy,50,2013-09-19 04:50:00
6:53 PM,79.0,71.1,77,29.99,10.0,NE,12.7,-,N/A,,Mostly Cloudy,40,2013-09-19 04:53:00
7:31 PM,78.8,71.6,78,30.00,10.0,NE,15.0,-,N/A,,Scattered Clouds,50,2013-09-19 05:31:00
7:49 PM,78.8,71.6,78,30.01,10.0,NE,16.1,-,N/A,,Mostly Cloudy,50,2013-09-19 05:49:00
7:53 PM,79.0,72.0,79,30.00,10.0,NE,15.0,-,N/A,,Mostly Cloudy,50,2013-09-19 05:53:00
8:31 PM,78.8,71.6,78,30.02,10.0,NE,15.0,-,N/A,,Scattered Clouds,50,2013-09-19 06:31:00
8:53 PM,79.0,71.1,77,30.02,10.0,NE,16.1,-,N/A,,Partly Cloudy,50,2013-09-19 06:53:00
9:53 PM,79.0,72.0,79,30.03,10.0,ENE,15.0,-,N/A,,Partly Cloudy,60,2013-09-19 07:53:00
10:53 PM,79.0,71.1,77,30.02,10.0,ENE,15.0,-,N/A,,Scattered Clouds,70,2013-09-19 08:53:00
11:53 PM,79.0,71.1,77,30.02,10.0,ENE,16.1,-,N/A,,Partly Cloudy,60,2013-09-19 09:53:00